Creston, IA

2:48 AM CST on February 21, 2017 (GMT -0600)
Creston Municipal

Weather History for KCSQ - February, 2013

Change the Weather History Date:

Tuesday, February 19, 2013

  Actual Average Record
Temperature  
Mean Temperature 17 °F -  
Max Temperature 24 °F 37 °F 71 °F (2017)
Min Temperature 8 °F 20 °F -5 °F (1958)
Degree Days  
Heating Degree Days 48    
Moisture  
Dew Point 0 °F    
Average Humidity 53    
Maximum Humidity 73    
Minimum Humidity 24    
Precipitation  
Precipitation 0.00 in - - ()
Sea Level Pressure  
Sea Level Pressure 30.18 in    
Wind  
Wind Speed 21 mph (NW)    
Max Wind Speed 28 mph    
Max Gust Speed 37 mph    
Visibility 10 miles    
Events      
Averages and records for this station are not official NWS values.
T = Trace of Precipitation, MM = Missing Value Source: NWS Daily Summary

Daily Weather History Graph

Daily Weather History Graph

Search for Another Location

Airport or City:

Trip Planner

Search our weather history database for the weather conditions in past years. The results will help you decide how hot, cold, wet, or windy it might be!

Date:

Astronomy

Feb. 19, 2013 Rise Set
Actual Time 7:05 AM CST 5:57 PM CST
Civil Twilight 6:38 AM CST 6:25 PM CST
Nautical Twilight 6:06 AM CST 6:57 PM CST
Astronomical Twilight 5:34 AM CST 7:28 PM CST
Moon 12:27 PM CST (2/19) 2:40 AM CST (2/19)
Length of Visible Light 11h 47m
Length of Day
10h 51m
Waxing Gibbous, 67% of the Moon is Illuminated
Feb 19
Waxing Gibbous
Feb 25
Full
Mar 4
Last Quarter
Mar 11
New
Mar 19
First Quarter

Hourly Weather History & Observations

Time (CST) Temp. Windchill Dew Point Humidity Pressure Visibility Wind Dir Wind Speed Gust Speed Precip Events Conditions
12:15 AM 17.6 °F 1.3 °F 8.6 °F 68% 29.98 in 10.0 mi WNW 19.6 mph 26.5 mph N/A   Clear
12:35 AM 17.6 °F -1.0 °F 8.6 °F 68% 29.98 in 10.0 mi WNW 26.5 mph 31.1 mph N/A   Clear
12:55 AM 15.8 °F -2.3 °F 6.8 °F 68% 29.99 in 10.0 mi WNW 23.0 mph 31.1 mph N/A   Clear
1:15 AM 15.8 °F -3.1 °F 8.6 °F 73% 29.99 in 10.0 mi WNW 25.3 mph 32.2 mph N/A   Mostly Cloudy
1:35 AM 15.8 °F -2.7 °F 6.8 °F 68% 30.00 in 10.0 mi WNW 24.2 mph 35.7 mph N/A   Scattered Clouds
1:55 AM 15.8 °F -1.9 °F 6.8 °F 68% 30.00 in 10.0 mi WNW 21.9 mph 32.2 mph N/A   Scattered Clouds
2:15 AM 14.0 °F -5.1 °F 6.8 °F 73% 30.01 in 10.0 mi WNW 24.2 mph 34.5 mph N/A   Scattered Clouds
2:35 AM 14.0 °F -4.3 °F 5.0 °F 67% 30.02 in 10.0 mi WNW 21.9 mph 34.5 mph N/A   Clear
2:55 AM 12.2 °F -7.5 °F 5.0 °F 73% 30.03 in 10.0 mi WNW 24.2 mph 29.9 mph N/A   Clear
3:15 AM 12.2 °F -5.8 °F 3.2 °F 67% 30.04 in 10.0 mi WNW 19.6 mph 26.5 mph N/A   Clear
3:35 AM 12.2 °F -6.3 °F 3.2 °F 67% 30.04 in 10.0 mi WNW 20.7 mph 31.1 mph N/A   Clear
3:55 AM 12.2 °F -5.8 °F 3.2 °F 67% 30.06 in 10.0 mi WNW 19.6 mph 28.8 mph N/A   Scattered Clouds
4:15 AM 12.2 °F -5.8 °F 3.2 °F 67% 30.06 in 10.0 mi WNW 19.6 mph 31.1 mph N/A   Overcast
4:35 AM 10.4 °F -8.6 °F 1.4 °F 67% 30.07 in 10.0 mi WNW 20.7 mph 31.1 mph N/A   Overcast
4:55 AM 10.4 °F -9.1 °F 3.2 °F 73% 30.08 in 10.0 mi NW 21.9 mph 29.9 mph N/A   Overcast
5:15 AM 10.4 °F -10.3 °F 1.4 °F 67% 30.08 in 10.0 mi NW 25.3 mph 32.2 mph N/A   Overcast
5:55 AM 12.2 °F -6.3 °F 3.2 °F 67% 30.09 in 10.0 mi NW 20.7 mph 34.5 mph N/A   Overcast
6:15 AM 12.2 °F -6.3 °F 3.2 °F 67% 30.10 in 10.0 mi NW 20.7 mph 28.8 mph N/A   Overcast
6:35 AM 12.2 °F -7.5 °F 1.4 °F 62% 30.11 in 10.0 mi NW 24.2 mph 29.9 mph N/A   Overcast
6:55 AM 10.4 °F -9.5 °F 1.4 °F 67% 30.12 in 10.0 mi NW 23.0 mph 31.1 mph N/A   Overcast
7:15 AM 10.4 °F -9.9 °F 1.4 °F 67% 30.13 in 10.0 mi NW 24.2 mph 29.9 mph N/A   Overcast
7:35 AM 10.4 °F -8.6 °F 1.4 °F 67% 30.14 in 10.0 mi NW 20.7 mph 26.5 mph N/A   Overcast
7:55 AM 10.4 °F -10.7 °F 1.4 °F 67% 30.15 in 10.0 mi NNW 26.5 mph - N/A   Overcast
8:15 AM 10.4 °F -9.1 °F -0.4 °F 62% 30.16 in 10.0 mi NW 21.9 mph 27.6 mph N/A   Mostly Cloudy
8:35 AM 12.2 °F -7.1 °F -0.4 °F 57% 30.17 in 10.0 mi NW 23.0 mph 31.1 mph N/A   Mostly Cloudy
8:55 AM 10.4 °F -9.9 °F -0.4 °F 62% 30.18 in 10.0 mi NW 24.2 mph 31.1 mph N/A   Scattered Clouds
9:35 AM 10.4 °F -9.5 °F -2.2 °F 57% 30.19 in 10.0 mi NW 23.0 mph 36.8 mph N/A   Scattered Clouds
9:55 AM 12.2 °F -7.9 °F -2.2 °F 53% 30.20 in 10.0 mi WNW 25.3 mph 33.4 mph N/A   Scattered Clouds
10:15 AM 12.2 °F -7.5 °F -2.2 °F 53% 30.22 in 10.0 mi NW 24.2 mph 31.1 mph N/A   Scattered Clouds
10:35 AM 14.0 °F -4.3 °F -0.4 °F 53% 30.21 in 10.0 mi NW 21.9 mph 32.2 mph N/A   Scattered Clouds
10:55 AM 15.8 °F -3.1 °F -0.4 °F 49% 30.22 in 10.0 mi NW 25.3 mph 32.2 mph N/A   Clear
11:15 AM 17.6 °F 0.1 °F -0.4 °F 45% 30.22 in 10.0 mi NW 23.0 mph 33.4 mph N/A   Clear
11:35 AM 17.6 °F 0.9 °F -0.4 °F 45% 30.22 in 10.0 mi WNW 20.7 mph 26.5 mph N/A   Clear
11:55 AM 19.4 °F 1.8 °F -0.4 °F 42% 30.22 in 10.0 mi NW 25.3 mph 33.4 mph N/A   Clear
12:15 PM 19.4 °F 2.5 °F -0.4 °F 42% 30.22 in 10.0 mi WNW 23.0 mph 33.4 mph N/A   Clear
12:35 PM 21.2 °F 4.9 °F -0.4 °F 39% 30.22 in 10.0 mi WNW 23.0 mph 32.2 mph N/A   Clear
12:55 PM 21.2 °F 4.9 °F -0.4 °F 39% 30.22 in 10.0 mi NW 23.0 mph 31.1 mph N/A   Clear
1:15 PM 23.0 °F 6.0 °F -0.4 °F 36% 30.22 in 10.0 mi WNW 27.6 mph 36.8 mph N/A   Clear
1:35 PM 23.0 °F 7.2 °F -2.2 °F 33% 30.22 in 10.0 mi NW 23.0 mph 35.7 mph N/A   Clear
1:55 PM 24.8 °F 9.3 °F -2.2 °F 31% 30.22 in 10.0 mi WNW 24.2 mph 32.2 mph N/A   Clear
2:15 PM 24.8 °F 10.0 °F -4.0 °F 28% 30.22 in 10.0 mi WNW 21.9 mph 35.7 mph N/A   Clear
2:35 PM 24.8 °F 9.3 °F -4.0 °F 28% 30.22 in 10.0 mi WNW 24.2 mph 31.1 mph N/A   Clear
2:55 PM 24.8 °F 10.7 °F -5.8 °F 26% 30.22 in 10.0 mi NW 19.6 mph 33.4 mph N/A   Clear
3:15 PM 24.8 °F 10.3 °F -5.8 °F 26% 30.22 in 10.0 mi NW 20.7 mph 31.1 mph N/A   Clear
3:35 PM 24.8 °F 10.3 °F -7.6 °F 24% 30.23 in 10.0 mi NW 20.7 mph 31.1 mph N/A   Clear
3:55 PM 24.8 °F 9.6 °F -7.6 °F 24% 30.23 in 10.0 mi WNW 23.0 mph 28.8 mph N/A   Clear
4:15 PM 24.8 °F 10.7 °F -7.6 °F 24% 30.24 in 10.0 mi WNW 19.6 mph 26.5 mph N/A   Clear
4:35 PM 24.8 °F 11.1 °F -7.6 °F 24% 30.24 in 10.0 mi WNW 18.4 mph 24.2 mph N/A   Clear
4:55 PM 24.8 °F 10.7 °F -7.6 °F 24% 30.24 in 10.0 mi WNW 19.6 mph 24.2 mph N/A   Clear
5:15 PM 23.0 °F 8.7 °F -5.8 °F 28% 30.24 in 10.0 mi WNW 18.4 mph 26.5 mph N/A   Clear
6:35 PM 19.4 °F 5.5 °F -4.0 °F 36% 30.25 in 10.0 mi NW 15.0 mph - N/A   Clear
6:55 PM 17.6 °F 7.3 °F -2.2 °F 42% 30.25 in 10.0 mi NW 8.1 mph - N/A   Clear
7:15 PM 15.8 °F 3.4 °F -2.2 °F 45% 30.26 in 10.0 mi NW 10.4 mph - N/A   Clear
7:35 PM 15.8 °F - -0.4 °F 49% 30.26 in 10.0 mi Calm Calm - N/A   Clear
7:55 PM 14.0 °F 2.9 °F -0.4 °F 53% 30.27 in 10.0 mi WNW 8.1 mph - N/A   Clear
8:15 PM 15.8 °F 5.1 °F -0.4 °F 49% 30.27 in 10.0 mi WNW 8.1 mph - N/A   Clear
8:35 PM 14.0 °F 3.9 °F -0.4 °F 53% 30.27 in 10.0 mi NW 6.9 mph - N/A   Clear
8:55 PM 12.2 °F 0.7 °F -0.4 °F 57% 30.28 in 10.0 mi NNW 8.1 mph - N/A   Clear
9:15 PM 14.0 °F 1.2 °F -0.4 °F 53% 30.28 in 10.0 mi NW 10.4 mph - N/A   Clear
9:35 PM 12.2 °F -1.8 °F -0.4 °F 57% 30.29 in 10.0 mi NW 11.5 mph - N/A   Clear
9:55 PM 12.2 °F 0.7 °F -0.4 °F 57% 30.30 in 10.0 mi NW 8.1 mph - N/A   Clear
10:15 PM 10.4 °F -0.4 °F -0.4 °F 62% 30.31 in 10.0 mi WNW 6.9 mph - N/A   Clear
10:35 PM 10.4 °F -2.4 °F 1.4 °F 67% 30.31 in 10.0 mi NW 9.2 mph - N/A   Clear
10:55 PM 10.4 °F -3.3 °F 1.4 °F 67% 30.31 in 10.0 mi NW 10.4 mph - N/A   Clear
11:15 PM 10.4 °F -4.1 °F -0.4 °F 62% 30.31 in 10.0 mi NW 11.5 mph - N/A   Clear
11:35 PM 10.4 °F -3.3 °F -0.4 °F 62% 30.32 in 10.0 mi NNW 10.4 mph - N/A   Clear
11:55 PM 8.6 °F 0.1 °F -0.4 °F 67% 30.34 in 10.0 mi NW 4.6 mph - N/A   Clear